Temperature
19 18 18 18 18 18 18 18 18 17 17 17 17 17 17 17 17 17 17 16 16 16 16 16 16 16 16 16 16 17 16 16 16 15 15 15 15 14 14 14 13 13 13
18 18 18 18 18 18 18 17 17 17 17 17 17 17 17 17 17 16 16 16 16 16 16 16 16 16 16 16 16 16 16 16 15 15 15 14 14 14 13 13 13 13 13
18 18 18 18 18 18 18 17 17 17 17 17 17 17 17 16 16 16 16 16 16 16 16 16 16 16 16 16 16 15 15 15 15 15 14 14 14 13 13 13 12 12 12
18 18 18 18 18 18 18 17 17 17 17 17 17 16 16 16 16 16 16 16 16 16 16 15 15 15 15 15 15 15 15 15 14 14 14 13 13 13 13 12 12 12 11
18 18 18 18 18 18 17 17 17 17 16 16 16 16 16 16 16 15 15 15 15 15 15 15 15 15 15 15 15 15 14 14 14 14 13 13 13 13 12 12 12 11 11
18 18 18 17 17 17 17 17 17 17 16 16 16 16 16 15 15 15 15 15 15 15 15 15 15 15 14 14 14 14 14 14 13 13 13 13 13 13 12 12 12 11 11
18 17 17 17 17 17 17 17 17 16 16 16 16 16 16 15 15 15 15 15 14 14 14 14 14 14 14 14 14 14 14 13 13 13 13 13 12 12 12 12 12 11 11
18 17 17 17 17 17 16 16 16 16 16 16 15 15 15 15 15 15 15 14 14 14 14 14 14 13 13 13 13 13 13 13 13 13 12 12 12 12 12 12 11 11 11
17 17 17 17 17 16 16 16 16 15 15 15 15 15 15 15 15 14 14 14 14 14 14 13 13 13 13 13 12 12 12 12 12 12 12 12 12 12 11 11 11 11 10
17 17 17 16 16 16 16 16 15 15 15 14 14 14 14 14 14 14 14 13 13 13 13 13 13 13 13 12 12 12 12 11 11 11 11 11 11 11 11 11 11 11 10
17 16 16 16 16 16 15 15 15 15 15 14 14 14 14 14 14 14 13 13 13 13 12 12 12 12 12 12 12 12 11 11 11 11 11 11 11 10 10 10 10 10 10
16 16 16 16 16 15 15 15 15 15 14 14 14 13 13 13 13 13 13 13 13 12 12 12 12 12 12 11 11 11 11 11 11 11 11 11 10 10 10 10 10 10 10
16 16 16 16 15 15 15 15 15 14 14 14 13 13 13 13 13 13 13 12 12 12 12 12 11 11 11 11 11 11 11 11 11 11 10 10 10 10 10 10 10 10 9
16 16 16 15 15 15 15 14 14 14 14 13 13 13 13 12 12 12 12 12 12 12 11 11 11 11 11 10 10 10 10 10 10 10 10 10 10 10 9 9 9 9 9
15 15 15 15 15 14 14 14 14 13 13 13 13 13 12 12 12 12 12 11 11 11 11 11 10 10 10 10 10 10 10 10 10 10 10 10 10 10 9 9 9 9 9
15 15 15 14 14 14 14 13 13 13 13 13 13 13 12 12 12 12 11 11 11 11 10 10 10 10 10 10 10 10 10 10 9 9 9 9 9 9 9 9 9 9 9
14 14 14 14 14 13 13 13 13 13 13 12 12 12 12 12 11 11 11 11 11 10 10 10 10 10 9 10 9 9 9 9 9 9 9 9 9 9 9 9 9 9 9
14 14 14 13 13 13 13 13 12 12 12 12 12 11 11 11 11 11 11 10 10 10 10 9 9 9 9 9 9 9 9 9 9 9 9 9 9 9 9 9 9 9 9
13 13 13 13 13 12 12 12 12 12 12 11 11 11 11 11 10 10 10 10 9 9 9 9 9 9 9 9 9 9 9 8 9 9 8 8 8 9 9 9 9 9 9
13 13 13 13 13 12 12 12 12 12 11 11 11 11 10 10 10 10 9 9 9 9 9 9 9 9 9 9 9 9 8 8 8 8 8 8 8 8 8 8 8 8 8
13 13 13 13 12 12 12 12 12 11 11 11 10 10 10 10 9 9 9 9 9 9 9 9 9 9 8 8 8 8 8 8 8 8 8 8 8 8 8 8 8 8 8
12 12 12 12 12 12 12 12 11 11 11 11 10 10 10 10 9 9 9 9 9 9 9 8 8 8 8 8 8 8 8 8 8 8 8 8 8 8 8 8 8 8 8
12 12 12 12 12 12 11 11 11 11 11 10 10 10 10 10 9 9 9 9 9 8 8 8 8 8 8 8 7 7 7 7 7 7 7 7 7 7 7 7 7 7 7
12 12 12 12 12 11 11 11 11 11 10 10 10 10 10 9 9 9 9 8 8 8 8 8 8 7 7 7 7 7 7 7 7 7 7 7 7 7 7 6 6 6 6
12 12 12 11 11 11 11 11 11 10 10 10 10 10 9 9 9 8 8 8 8 8 7 7 7 7 7 7 7 6 7 6 6 6 6 6 6 6 6 6 6 6 6
11 11 11 11 11 11 11 10 10 10 10 10 9 9 9 9 8 8 8 8 7 7 7 7 6 6 6 6 6 6 6 6 6 6 6 6 6 5 5 5 5 5 5
Wind_Speed
3 3 3 3 2 1 0 0 0 1 1 1 1 1 1 1 1 0 0 0 0 0 1 1 1 1 2 2 1 1 1 1 2 1 1 2 3 5 7 9 10 9 9
4 3 3 2 2 1 1 0 0 0 0 0 0 1 0 1 1 0 1 0 0 1 1 2 2 1 2 2 2 1 0 1 2 3 2 2 3 4 6 6 7 8 8
4 4 3 2 2 1 0 0 0 0 0 0 1 0 0 1 1 1 1 1 1 1 1 1 2 2 2 2 2 2 1 1 2 3 3 2 3 3 4 4 5 5 7
4 4 3 2 2 2 1 1 1 0 0 1 1 1 1 2 2 2 1 1 1 1 1 1 2 2 2 2 1 1 1 0 1 3 3 3 3 3 3 3 3 3 4
4 4 3 3 2 2 2 2 1 1 1 2 2 2 2 3 3 3 1 1 1 1 1 2 3 4 4 3 2 2 2 1 1 2 3 3 3 3 3 3 4 4 3
3 3 3 3 2 2 2 2 2 2 2 2 2 3 3 4 6 7 4 2 1 1 1 1 3 4 4 5 5 5 3 1 1 2 2 2 3 2 2 3 3 3 2
3 3 3 2 2 2 2 2 2 2 2 2 2 3 3 4 6 6 5 2 2 3 3 2 2 3 3 2 3 3 4 4 2 1 2 2 2 2 3 3 2 2 2
3 2 2 2 2 2 2 2 2 2 2 2 2 2 3 4 6 6 5 2 2 3 4 4 4 4 6 5 3 4 4 4 3 2 2 1 2 2 2 3 4 3 2
2 2 2 1 1 2 2 2 2 2 2 2 3 3 3 4 5 5 4 1 3 4 4 6 5 5 7 7 3 2 3 2 5 6 5 5 5 4 3 1 2 3 2
2 1 1 2 1 1 1 1 2 2 2 3 3 3 3 3 4 4 4 1 2 3 4 5 8 7 7 7 4 3 2 2 2 3 3 3 3 3 3 2 1 2 1
2 2 2 2 2 1 1 1 2 2 2 2 3 3 3 4 4 4 4 2 1 2 3 3 4 6 6 6 5 3 2 2 1 1 3 2 2 2 2 2 1 1 1
2 2 3 2 1 1 2 1 2 3 3 2 3 2 2 3 3 3 3 4 3 3 3 4 4 4 4 4 3 3 3 3 2 0 2 2 1 1 1 2 3 2 2
3 3 2 2 2 2 2 1 1 2 2 2 2 2 2 3 3 3 4 4 5 3 3 5 4 3 1 1 1 2 3 2 1 1 1 1 1 2 2 1 2 3 3
2 2 2 2 2 3 2 1 1 1 0 1 1 1 2 2 2 1 1 2 3 3 3 3 3 1 1 1 1 2 1 2 2 2 1 1 1 2 2 2 2 2 2
2 1 2 2 3 3 3 4 3 3 2 0 0 1 1 1 1 2 2 1 1 2 2 2 1 1 1 1 1 1 1 0 1 1 1 1 1 0 1 1 2 2 2
1 1 1 1 2 3 3 4 9 7 8 8 7 4 4 4 4 4 4 4 4 3 1 1 1 1 1 1 1 1 1 1 1 1 1 1 1 1 1 1 2 2 2
1 0 0 1 1 1 2 2 2 4 7 9 8 7 6 5 5 5 5 4 4 2 0 1 0 0 1 1 1 1 1 1 1 1 1 2 2 2 1 2 2 2 2
0 0 0 1 1 1 1 1 2 2 3 2 4 5 5 5 5 4 4 3 2 1 1 1 1 0 1 1 1 1 2 2 2 2 2 2 2 2 2 2 2 2 3
1 1 1 1 1 1 1 1 2 2 3 4 3 3 3 3 3 2 1 0 0 0 1 1 1 1 1 1 1 1 2 1 2 2 2 3 3 3 3 3 2 3 4
0 0 1 1 1 1 1 1 1 2 3 3 3 3 2 2 2 1 1 1 1 1 1 1 1 1 1 1 1 1 1 1 1 2 2 3 3 3 4 4 3 3 4
0 1 2 1 0 1 1 1 2 2 2 2 2 3 4 2 1 1 1 1 1 1 1 1 1 1 1 1 1 1 2 2 2 2 3 3 4 4 4 4 4 4 3
1 1 1 1 1 1 1 1 2 2 1 2 3 3 4 1 0 1 0 0 0 1 1 1 1 2 2 2 2 2 3 3 3 3 4 4 4 4 4 4 4 4 4
1 1 1 1 1 1 1 1 2 2 1 2 2 3 2 1 1 1 1 1 1 1 2 2 2 2 3 4 4 3 3 4 4 4 4 5 5 5 4 4 5 5 5
1 0 1 2 1 1 1 2 2 2 2 2 2 2 2 1 1 2 2 2 1 2 2 2 2 3 5 5 4 3 4 5 5 5 6 6 6 5 5 4 5 6 6
0 1 1 1 1 1 1 2 2 2 2 3 2 2 2 2 1 1 1 1 1 1 2 2 2 3 4 4 4 4 6 7 7 8 7 6 7 6 5 5 4 5 6
1 1 2 2 2 2 2 2 2 2 2 2 2 2 1 1 0 0 0 1 1 1 2 2 3 4 4 4 4 5 6 8 9 11 9 7 7 6 5 5 7 6 6
Wind_Direction
158 152 141 143 149 148 172 2 341 349 17 353 347 333 352 30 46 191 234 154 236 21 304 301 310 334 332 318 309 294 266 192 180 166 116 107 113 110 112 114 113 113 115
150 142 137 136 133 142 166 214 236 17 8 73 28 345 338 55 68 50 310 38 56 49 16 11 351 341 339 338 333 301 234 200 167 166 162 140 120 120 123 129 125 121 117
144 142 138 140 139 145 183 165 91 90 80 128 122 97 11 42 41 28 27 46 63 71 56 23 2 5 339 335 327 320 293 234 157 159 170 159 135 137 130 134 129 127 124
127 124 125 129 134 136 135 110 107 100 131 85 69 58 50 47 41 31 64 94 78 62 66 58 29 18 346 315 303 316 298 221 148 144 146 148 148 149 149 154 149 154 154
127 131 140 138 131 130 112 95 80 73 81 72 60 48 42 44 41 36 22 91 81 78 84 85 70 67 53 29 21 7 4 55 122 139 150 149 157 168 182 183 166 161 157
133 135 129 134 136 127 112 109 98 82 73 78 70 66 55 48 41 41 30 47 45 41 63 87 108 87 77 80 75 62 55 75 108 128 141 159 173 178 174 167 163 161 171
136 129 133 138 134 133 136 123 116 107 97 83 78 81 76 55 45 39 34 36 56 54 45 29 43 57 64 72 93 90 68 58 78 144 146 179 178 174 178 179 173 168 162
139 138 136 142 136 116 115 122 130 125 117 105 102 98 88 61 52 38 22 42 75 68 59 51 51 42 26 29 51 72 76 55 50 98 111 120 122 136 192 188 171 159 161
124 131 140 146 129 124 133 145 148 138 128 114 101 102 91 71 48 36 15 51 85 75 64 52 47 52 30 27 42 72 88 97 86 97 101 109 109 106 111 132 151 162 180
126 120 114 107 113 134 131 132 132 137 121 109 101 96 97 92 67 44 17 62 109 105 95 80 59 53 39 27 26 42 62 44 75 110 118 141 144 137 137 155 182 192 156
112 111 108 102 106 124 110 115 134 133 118 108 104 95 91 89 87 60 37 21 61 100 101 90 74 65 50 28 23 42 39 341 323 165 147 142 132 135 143 122 101 167 140
81 85 81 83 86 99 110 127 141 138 138 130 122 110 94 90 78 69 59 45 39 66 73 92 97 88 59 27 25 18 355 338 302 220 122 125 135 146 150 145 144 155 171
79 81 87 83 69 67 81 99 140 158 160 149 159 160 119 104 88 86 85 69 63 76 85 103 123 118 76 3 306 330 337 317 319 68 89 133 148 151 151 162 182 189 195
92 99 101 98 84 73 56 45 49 42 91 130 142 140 121 116 104 99 141 120 104 109 122 131 140 144 297 322 312 290 287 338 360 5 2 29 115 159 181 190 212 208 199
102 99 114 117 112 94 62 36 43 43 28 32 44 62 109 128 104 111 108 89 81 95 121 147 180 190 219 238 244 260 277 265 304 295 302 300 285 239 226 218 226 228 223
102 79 89 120 111 112 109 79 50 59 58 58 58 67 70 88 115 100 79 67 70 76 103 190 185 214 243 229 235 246 286 321 322 324 307 315 313 292 281 264 244 238 243
61 73 65 90 100 120 138 136 116 75 63 57 58 68 86 99 97 90 78 66 70 87 95 280 299 6 342 356 331 323 352 18 353 330 314 308 299 289 263 262 271 267 258
334 61 48 95 103 114 136 150 145 142 122 93 64 77 98 102 98 91 88 83 83 110 270 315 1 10 334 330 338 4 18 32 2 336 328 317 313 305 294 273 264 276 272
6 17 35 83 132 144 154 150 140 134 123 115 107 92 106 119 113 100 107 48 72 157 255 292 323 333 345 341 356 20 18 7 344 327 319 307 298 296 297 288 280 275 274
61 4 273 237 163 135 123 117 106 106 106 114 117 111 130 142 133 136 168 255 294 290 284 290 335 341 352 0 43 18 346 337 326 306 304 304 307 309 302 293 292 283 273
209 201 230 246 58 67 96 96 97 101 110 121 118 129 156 165 166 163 172 207 256 296 330 350 5 6 13 32 29 351 333 334 337 326 323 319 314 312 302 296 298 295 292
246 225 177 103 84 80 93 112 108 108 121 116 117 131 163 208 294 128 158 174 301 312 347 9 16 29 22 16 22 10 359 358 348 336 329 322 315 309 308 311 314 314 305
229 192 137 115 125 143 179 120 105 106 109 114 110 121 149 170 42 50 60 70 62 21 20 32 35 35 35 35 48 41 13 353 342 338 330 322 313 308 306 306 309 313 311
275 190 124 122 126 131 109 85 75 73 72 78 86 104 115 109 77 55 45 57 44 45 45 43 46 57 55 43 32 24 10 352 338 329 326 316 310 309 313 318 315 313 312
34 73 82 82 90 87 80 80 74 72 80 85 89 93 97 100 95 61 33 54 51 54 60 62 56 64 64 55 33 31 18 11 1 344 323 309 305 305 308 312 315 311 308
61 79 84 79 71 68 72 74 75 79 85 91 94 97 103 105 112 111 56 44 16 46 51 54 63 71 66 48 39 33 16 5 353 341 325 305 303 309 321 317 313 309 308
Height
1539 1540 1541 1541 1541 1542 1542 1542 1543 1543 1542 1542 1542 1542 1542 1542 1542 1543 1543 1543 1544 1544 1544 1544 1544 1545 1545 1545 1545 1545 1545 1546 1546 1546 1547 1548 1548 1548 1548 1548 1548 1549 1549
1539 1539 1540 1540 1541 1541 1541 1541 1542 1541 1541 1541 1541 1541 1541 1541 1541 1541 1541 1541 1541 1541 1541 1542 1542 1542 1542 1542 1542 1543 1543 1543 1543 1543 1544 1545 1545 1546 1546 1547 1547 1547 1547
1538 1539 1539 1539 1540 1540 1540 1540 1540 1540 1540 1540 1539 1539 1539 1539 1539 1539 1539 1539 1539 1539 1539 1539 1540 1540 1540 1540 1540 1540 1540 1540 1541 1541 1541 1542 1543 1544 1544 1545 1546 1546 1546
1538 1538 1539 1539 1539 1539 1539 1539 1539 1539 1539 1539 1538 1538 1538 1537 1537 1538 1537 1537 1537 1537 1537 1538 1538 1538 1537 1537 1537 1537 1538 1538 1538 1538 1539 1539 1540 1541 1542 1543 1543 1544 1545
1537 1538 1538 1538 1538 1538 1538 1538 1538 1538 1538 1538 1537 1537 1537 1536 1536 1536 1536 1536 1536 1536 1536 1536 1536 1536 1536 1535 1535 1535 1535 1535 1535 1536 1537 1537 1538 1539 1540 1541 1542 1542 1543
1537 1537 1537 1537 1537 1537 1538 1538 1538 1537 1537 1537 1536 1536 1536 1535 1535 1535 1535 1535 1535 1535 1535 1535 1535 1534 1534 1534 1533 1533 1533 1533 1533 1534 1534 1535 1536 1537 1538 1539 1539 1540 1540
1536 1536 1537 1537 1537 1537 1537 1536 1536 1536 1536 1536 1535 1535 1535 1534 1535 1535 1535 1535 1534 1534 1534 1534 1534 1533 1533 1532 1531 1531 1531 1531 1532 1532 1532 1533 1534 1534 1535 1536 1537 1537 1538
1535 1536 1536 1536 1536 1536 1536 1535 1535 1535 1535 1535 1534 1534 1534 1534 1534 1534 1534 1534 1534 1533 1533 1533 1532 1532 1532 1531 1530 1530 1530 1530 1530 1530 1531 1531 1532 1533 1534 1534 1535 1536 1537
1535 1535 1535 1535 1535 1535 1534 1534 1534 1534 1534 1534 1534 1533 1533 1533 1533 1533 1533 1533 1533 1532 1532 1532 1532 1531 1531 1530 1530 1530 1529 1529 1529 1530 1530 1530 1531 1531 1532 1532 1533 1533 1534
1534 1534 1535 1535 1534 1534 1534 1533 1534 1534 1534 1533 1533 1533 1532 1532 1532 1532 1533 1532 1532 1532 1531 1531 1530 1530 1530 1530 1529 1529 1529 1529 1529 1529 1529 1529 1529 1530 1530 1530 1531 1531 1531
1534 1534 1533 1533 1533 1533 1533 1533 1533 1533 1533 1532 1532 1532 1532 1532 1531 1532 1532 1532 1532 1531 1531 1530 1530 1530 1530 1529 1529 1529 1529 1529 1529 1529 1528 1528 1529 1529 1529 1529 1529 1529 1529
1533 1533 1533 1533 1532 1532 1532 1532 1532 1532 1532 1532 1531 1531 1531 1531 1531 1531 1531 1531 1531 1531 1530 1530 1530 1529 1529 1529 1529 1529 1529 1529 1528 1529 1528 1528 1528 1528 1528 1528 1528 1528 1528
1532 1532 1532 1532 1532 1531 1531 1530 1530 1530 1530 1530 1530 1530 1530 1529 1529 1529 1529 1529 1529 1530 1529 1529 1529 1529 1529 1529 1529 1529 1529 1528 1528 1528 1528 1527 1527 1527 1527 1527 1526 1526 1526
1531 1531 1531 1531 1531 1530 1530 1530 1530 1529 1529 1529 1529 1529 1529 1529 1528 1528 1528 1528 1528 1528 1528 1528 1528 1528 1528 1528 1528 1528 1528 1528 1528 1528 1527 1527 1527 1526 1526 1526 1525 1525 1525
1530 1530 1530 1530 1530 1530 1530 1529 1529 1528 1528 1528 1528 1528 1528 1527 1527 1527 1527 1527 1527 1527 1527 1527 1527 1527 1527 1527 1527 1528 1527 1527 1527 1527 1527 1526 1526 1525 1525 1525 1525 1524 1524
1530 1530 1530 1530 1529 1529 1528 1528 1528 1528 1527 1527 1526 1526 1526 1526 1526 1526 1526 1526 1526 1526 1526 1526 1526 1527 1527 1527 1527 1526 1526 1526 1526 1526 1525 1525 1525 1524 1524 1524 1523 1523 1523
1529 1529 1529 1529 1528 1528 1528 1527 1527 1527 1526 1526 1526 1525 1525 1525 1525 1525 1525 1525 1525 1525 1525 1525 1526 1526 1526 1526 1526 1526 1525 1525 1525 1525 1525 1524 1524 1523 1523 1522 1522 1521 1521
1528 1528 1528 1528 1527 1527 1527 1527 1526 1526 1525 1525 1525 1524 1524 1524 1524 1524 1524 1524 1524 1524 1524 1525 1525 1525 1525 1525 1525 1524 1524 1523 1523 1524 1523 1523 1522 1522 1521 1520 1520 1519 1519
1527 1527 1527 1527 1527 1527 1527 1526 1526 1526 1525 1525 1524 1524 1524 1523 1523 1523 1523 1523 1523 1524 1524 1524 1524 1524 1524 1524 1523 1523 1522 1522 1522 1522 1522 1521 1521 1520 1519 1518 1518 1517 1516
1526 1526 1526 1527 1527 1526 1526 1526 1526 1525 1525 1524 1524 1524 1524 1523 1523 1523 1523 1523 1523 1523 1523 1524 1523 1523 1523 1523 1522 1522 1521 1521 1521 1521 1520 1519 1519 1518 1517 1516 1515 1514 1513
1526 1526 1526 1526 1526 1526 1526 1526 1525 1525 1525 1524 1524 1524 1523 1523 1524 1523 1523 1523 1523 1523 1523 1522 1522 1522 1522 1522 1521 1521 1520 1520 1519 1519 1518 1517 1516 1515 1514 1513 1512 1511 1509
1525 1525 1525 1525 1525 1525 1525 1525 1525 1524 1525 1524 1524 1523 1523 1523 1523 1523 1523 1522 1522 1522 1522 1522 1521 1521 1520 1520 1520 1519 1519 1518 1517 1517 1516 1515 1514 1513 1512 1510 1509 1507 1506
1524 1524 1524 1524 1524 1524 1524 1525 1524 1524 1524 1524 1523 1523 1523 1522 1522 1522 1522 1522 1521 1521 1520 1520 1520 1519 1519 1519 1518 1517 1517 1516 1515 1514 1513 1512 1511 1510 1509 1507 1506 1504 1503
1523 1523 1523 1524 1524 1524 1524 1524 1524 1524 1524 1523 1523 1522 1522 1522 1522 1522 1521 1521 1520 1520 1519 1519 1518 1518 1517 1517 1516 1515 1514 1514 1513 1512 1511 1509 1508 1507 1506 1505 1503 1501 1499
1522 1523 1523 1523 1523 1523 1523 1523 1523 1523 1523 1523 1522 1522 1522 1521 1521 1521 1520 1520 1519 1519 1518 1517 1517 1516 1515 1514 1514 1513 1512 1511 1510 1508 1507 1506 1505 1504 1503 1501 1500 1498 1496
1522 1522 1522 1522 1522 1523 1523 1523 1523 1523 1523 1522 1522 1522 1521 1521 1521 1520 1520 1519 1519 1518 1517 1516 1515 1514 1513 1512 1511 1511 1510 1508 1507 1505 1504 1503 1502 1501 1499 1498 1496 1495 1493